Simultaneous Nadir Overpasses (SNOs) Predictions

Prediction of SNOs between GOES-16 and AQUA Satellite Orbit:

Table of predicted SNOs for the next 14.0 days since TLE Epoch: 8/7/2020
Index Date Time (GOES-16) GOES-16 Lat,Lon AQUA Lat,Lon Distance(km) Time Diff (sec)
1 08/08/2020 06:35:45 -0.04, -75.21 -0.01, -75.34 15.24 80
2 08/10/2020 06:23:34 -0.04, -75.23 -0.62, -72.39 322.62 80
3 08/10/2020 18:44:59 0.05, -75.24 -0.45, -77.59 266.80 80
4 08/12/2020 18:35:28 0.05, -75.26 0.16, -74.63 71.41 80
5 08/14/2020 18:23:18 0.06, -75.28 0.84, -71.68 409.72 80
6 08/15/2020 06:44:33 -0.06, -75.29 0.29, -76.83 176.59 80
7 08/17/2020 06:32:23 -0.07, -75.31 -0.39, -73.89 162.10 80
8 08/17/2020 18:51:07 0.07, -75.32 -0.74, -79.08 427.46 80
9 08/19/2020 18:38:56 0.07, -75.35 -0.11, -76.12 88.12 80
10 08/21/2020 18:29:25 0.07, -75.39 0.52, -73.17 252.00 80
